Location: Unspecified
(0.0000°N, 0.0000°E)
Time: 22:20:25
(UTC+00:00)

ISS - Pass Details

Date: 18 January 2019
Orbit: 404 x 411 km, 51.6° (Epoch: 19 January)

Event Time Altitude Azimuth Distance (km) Brightness Sun altitude
Exits shadow 05:18:53 - 350° (N) 1,892 -0.7 -12.0°
Reaches altitude 10° 05:20:07 10° 359° (N) 1,458 -1.2 -11.7°
Maximum altitude 05:22:47 23° 54° (NE) 913 -1.6 -11.1°
Drops below altitude 10° 05:25:28 10° 109° (ESE) 1,461 0.6 -10.5°
Sets 05:27:48 0° 124° (SE) 2,322 1.9 -9.9°
